Flag for Canada Weather past 2 weeks in Rae-Edzo, Northwest Territories, Canada

Now
52 °F

Cool.


Feels Like: 51 °F
Forecast: 40 / 53 °F
Wind: 5 mph from West

Location: Lac La Martre

Current Time: Sep 23, 2014 at 1:02:53 AM

Latest Report: Sep 23, 2014 at 12:00 AM


Visibility: N/A

Pressure: 29.41 "Hg

Humidity: 63%

Dew point: 39 °F

Location of Rae-EdzoLocation

Historic Weather in Rae-Edzo — Graph

°F

Rae-Edzo temperature yesterday

Maximum temperature yesterday: 65 °F (at 4:00 PM)
Minimum temperature yesterday: 44 °F (at 2:00 AM)
Average temperature yesterday: 53 °F

Past Weeks' High & Low Weather Summary

 TemperatureHumidityPressure
High65 °F (Sep 22, 4:00 PM)100% (Sep 13, 12:00 AM)30.46 "Hg (Sep 13, 12:00 AM)
Low25 °F (Sep 12, 11:00 PM)27% (Sep 10, 6:00 PM)29.31 "Hg (Sep 22, 1:00 PM)
Average43 °F71%29.92 "Hg
* Reported Sep 7 11:00 PM — Sep 22 11:00 PM, Rae-Edzo, Weather by CustomWeather, © 2014

Note: Actual official high and low records may vary slightly from our data, if they occured in-between our weather recording intervals... More about our weather records

Advertising

Rae-Edzo weather history for previous 24 hours

 ConditionsComfort  
Time TempWeatherWind HumidityBarometerVisibility
11:00 PM
Sep 22
55 °FCool.8 mph57%29.39 "HgN/A
10:00 PM58 °FRefreshingly cool.9 mph47%29.36 "HgN/A
9:00 PM54 °FCool.6 mph69%29.37 "HgN/A
8:00 PM56 °FCool.6 mph65%29.37 "HgN/A
7:00 PM63 °FMild.7 mph46%29.36 "HgN/A
6:00 PM64 °FMild.8 mph51%29.35 "HgN/A
5:00 PM64 °FMild.10 mph50%29.34 "HgN/A
4:00 PM65 °FMild.12 mph52%29.31 "HgN/A
3:00 PM64 °FMild.8 mph58%29.31 "HgN/A
2:00 PM59 °FCool.7 mph69%29.31 "HgN/A
1:00 PM58 °FCool.8 mph69%29.31 "HgN/A
12:00 PM57 °FCool.9 mph70%29.31 "HgN/A
11:00 AM54 °FCool.8 mph77%29.36 "HgN/A
10:00 AM50 °FCool.12 mph81%29.35 "HgN/A
9:00 AM48 °FCool.10 mph85%29.40 "HgN/A
8:00 AM47 °FCool.15 mph85%29.42 "HgN/A
7:00 AM46 °FCool.13 mph88%29.47 "HgN/A
6:00 AM45 °FCool.12 mph92%29.52 "HgN/A
5:00 AM45 °FQuite cool.10 mph93%29.56 "HgN/A
4:00 AM44 °FQuite cool.9 mph94%29.60 "HgN/A
3:00 AM45 °FCool.9 mph93%29.63 "HgN/A
2:00 AM44 °FQuite cool.9 mph99%29.66 "HgN/A
1:00 AM46 °FCool.9 mph87%29.67 "HgN/A
Weather by CustomWeather, © 2014

See weather overviewHow to use our weather pages